Weather History for New Bedford, MA

Change the Weather History Date:

Wednesday, February 20, 2013

  Actual Average Record
Temperature  
Mean Temperature 36 °F -  
Max Temperature 44 °F 41 °F 54 °F (1953)
Min Temperature 27 °F 26 °F 5 °F (1966)
Degree Days  
Heating Degree Days 30    
Moisture  
Dew Point 22 °F    
Average Humidity 61    
Maximum Humidity 93    
Minimum Humidity 37    
Precipitation  
Precipitation 0.00 in - - ()
Sea Level Pressure  
Sea Level Pressure 29.66 in    
Wind  
Wind Speed 12 mph (West)    
Max Wind Speed 23 mph    
Max Gust Speed 33 mph    
Visibility 10 miles    
Events      
Averages and records for this station are not official NWS values.
T = Trace of Precipitation, MM = Missing Value Source: NWS Daily Summary

Daily Weather History Graph

Daily Weather History Graph

Search for Another Location

Airport:

Trip Planner

Search our weather history database for the weather conditions in past years. The results will help you decide how hot, cold, wet, or windy it might be!

Date:

Astronomy

Feb. 20, 2013 Rise Set
Actual Time 6:31 AM EST 5:23 PM EST
Civil Twilight 6:03 AM EST 5:51 PM EST
Nautical Twilight 5:31 AM EST 6:24 PM EST
Astronomical Twilight 4:59 AM EST 6:56 PM EST
Moon 12:39 PM EST (2/20) 2:52 AM EST (2/20)
Length of Visible Light 11h 48m
Length of Day
10h 51m
Waxing Gibbous, 76% of the Moon is Illuminated
Feb 20
Waxing Gibbous
Feb 25
Full
Mar 4
Last Quarter
Mar 11
New
Mar 19
First Quarter

Hourly Weather History & Observations

Time (EST) Temp. Windchill Dew Point Humidity Pressure Visibility Wind Dir Wind Speed Gust Speed Precip Events Conditions
12:08 AM 44.6 °F 42.2 °F 42.8 °F 93% 29.59 in 10.0 mi WSW 4.6 mph - 0.00 in   Overcast
12:34 AM 42.8 °F 39.3 °F 41.0 °F 93% 29.58 in 10.0 mi WSW 5.8 mph - 0.00 in   Overcast
12:53 AM 43.0 °F 40.3 °F 41.0 °F 93% 29.57 in 10.0 mi WSW 4.6 mph - 0.00 in   Overcast
1:53 AM 42.1 °F 36.6 °F 39.0 °F 89% 29.57 in 10.0 mi WSW 9.2 mph - N/A   Overcast
2:26 AM 41.0 °F 35.8 °F 37.4 °F 87% 29.57 in 10.0 mi WSW 8.1 mph - N/A   Overcast
2:53 AM 39.9 °F 33.9 °F 37.0 °F 89% 29.57 in 10.0 mi WSW 9.2 mph - N/A   Mostly Cloudy
3:53 AM 37.9 °F 30.5 °F 34.0 °F 86% 29.57 in 10.0 mi West 11.5 mph - N/A   Overcast
4:53 AM 37.0 °F 28.1 °F 30.9 °F 79% 29.59 in 10.0 mi West 15.0 mph 23.0 mph N/A   Overcast
5:24 AM 35.6 °F 28.0 °F 28.4 °F 75% 29.60 in 10.0 mi West 10.4 mph - N/A   Overcast
5:31 AM 35.6 °F 26.6 °F 28.4 °F 75% 29.60 in 10.0 mi West 13.8 mph 19.6 mph N/A   Overcast
5:53 AM 34.0 °F 26.0 °F 27.0 °F 75% 29.62 in 10.0 mi West 10.4 mph - N/A   Mostly Cloudy
6:53 AM 34.0 °F 25.0 °F 25.0 °F 70% 29.64 in 10.0 mi West 12.7 mph - N/A   Mostly Cloudy
7:53 AM 33.8 °F 22.2 °F 19.4 °F 56% 29.66 in 10.0 mi West 20.7 mph 32.2 mph N/A   Mostly Cloudy
8:53 AM 33.1 °F 22.2 °F 19.0 °F 56% 29.69 in 10.0 mi West 17.3 mph 24.2 mph N/A   Mostly Cloudy
9:53 AM 35.1 °F 24.5 °F 17.1 °F 48% 29.69 in 10.0 mi West 18.4 mph 25.3 mph N/A   Scattered Clouds
10:53 AM 36.0 °F 25.6 °F 16.0 °F 44% 29.68 in 10.0 mi West 18.4 mph 26.5 mph N/A   Clear
11:53 AM 36.0 °F 25.0 °F 15.1 °F 43% 29.67 in 10.0 mi West 20.7 mph 32.2 mph N/A   Mostly Cloudy
12:53 PM 36.0 °F 24.4 °F 14.0 °F 41% 29.66 in 10.0 mi West 23.0 mph 28.8 mph N/A   Overcast
1:53 PM 35.6 °F 25.2 °F 12.2 °F 38% 29.65 in 10.0 mi West 18.4 mph 28.8 mph N/A   Scattered Clouds
2:53 PM 34.0 °F 22.4 °F 10.9 °F 38% 29.66 in 10.0 mi West 20.7 mph 29.9 mph N/A   Scattered Clouds
3:53 PM 34.0 °F 21.8 °F 10.0 °F 37% 29.68 in 10.0 mi WNW 23.0 mph 31.1 mph N/A   Mostly Cloudy
4:53 PM 30.9 °F 20.2 °F 10.9 °F 43% 29.70 in 10.0 mi West 15.0 mph 23.0 mph N/A   Scattered Clouds
5:53 PM 30.0 °F 20.0 °F 10.0 °F 43% 29.72 in 10.0 mi West 12.7 mph 26.5 mph N/A   Partly Cloudy
6:53 PM 28.9 °F 18.2 °F 9.0 °F 43% 29.74 in 10.0 mi WNW 13.8 mph 27.6 mph N/A   Partly Cloudy
7:53 PM 28.9 °F 15.1 °F 8.1 °F 41% 29.75 in 10.0 mi West 23.0 mph 33.4 mph N/A   Clear
8:53 PM 28.0 °F 15.7 °F 9.0 °F 45% 29.77 in 10.0 mi West 17.3 mph 24.2 mph N/A   Partly Cloudy
9:53 PM 27.0 °F 15.6 °F 10.0 °F 49% 29.79 in 10.0 mi West 13.8 mph 26.5 mph N/A   Scattered Clouds
10:53 PM 27.0 °F 14.7 °F 10.9 °F 51% 29.80 in 10.0 mi West 16.1 mph 24.2 mph N/A   Clear
11:53 PM 27.0 °F 15.6 °F 10.9 °F 51% 29.80 in 10.0 mi WNW 13.8 mph 21.9 mph N/A   Clear